Location: Borotín
(49.5055°N, 14.6142°E)
Time: 11:08:35
(UTC+00:00)

USA 308 - Pass Details

Date: 27 May 2022
Orbit: 549 x 558 km, 54.0° (Epoch: 14 June)

Event Time Altitude Azimuth Distance (km) Brightness Sun altitude
Exits shadow 00:36:50 24° 243° (WSW) 1,188 4.1 -15.9°
Maximum altitude 00:39:20 90° 230° (SW) 564 2.8 -15.8°
Drops below altitude 10° 00:43:32 10° 64° (ENE) 1,842 6.2 -15.5°
Sets 00:45:49 0° 65° (ENE) 2,751 7.2 -15.3°
